Location: Dortmund
(51.5019°N, 7.6520°E)
Time: 20:29:31
(UTC+01:00)

ISS - Pass Details

Date: 07 January 2018
Orbit: 402 x 407 km, 51.6° (Epoch: 20 January)

Event Time Altitude Azimuth Distance (km) Brightness Sun altitude
Exits shadow 05:56:30 43° 84° (E) 585 -2.7 -23.3°
Drops below altitude 10° 05:58:50 10° 87° (E) 1,470 0.1 -22.9°
Sets 06:00:56 0° 88° (E) 2,331 1.4 -22.6°
